GW3957 Weather Reports


Display with metric or nautical units.
time (UTC)temp
F
wind
direction
speed
MPH
gust
MPH
rain 1hr
in
rain 24hr
in
rain mn
in
humidity
%
barometer
mb
20260906125455 58 172 1.0 3.0 0.00 0.00 0.00 96 1018.0
20260906124955 58 226 0.0 3.0 0.00 0.00 0.00 97 1018.0
20260906124450 58 221 0.0 3.0 0.00 0.00 0.00 97 1017.9
20260906123945 58 216 1.0 1.0 0.00 0.00 0.00 98 1017.8
20260906123444 58 256 1.0 2.0 0.00 0.00 0.00 97 1017.6
20260906122939 58 208 0.0 0.0 0.00 0.00 0.00 97 1017.5
20260906122434 57 194 0.0 2.0 0.00 0.00 0.00 98 1017.6
20260906121931 57 240 1.0 3.0 0.00 0.00 0.00 98 1017.5
20260906121427 57 273 2.0 3.0 0.00 0.00 0.00 98 1017.4
20260906120923 57 95 0.0 3.0 0.00 0.00 0.00 99 1017.8
20260906120419 57 222 1.0 2.0 0.00 0.00 0.00 99 1017.8
20260906115914 57 200 0.0 1.0 0.00 0.00 0.00 99 1017.6
20260906115410 57 227 0.0 1.0 0.00 0.00 0.00 99 1017.4
20260906114909 57 189 0.0 2.0 0.00 0.00 0.00 99 1017.4
20260906114404 57 268 1.0 2.0 0.00 0.00 0.00 99 1017.5
20260906113900 57 245 1.0 2.0 0.00 0.00 0.00 99 1017.3
20260906113358 57 218 0.0 0.0 0.00 0.00 0.00 99 1017.3
20260906112854 57 195 0.0 0.0 0.00 0.00 0.00 99 1017.3
20260906112349 57 207 0.0 0.0 0.00 0.00 0.00 99 1017.4
20260906111843 57 204 0.0 1.0 0.00 0.00 0.00 99 1017.4
20260906111337 57 211 0.0 1.0 0.00 0.00 0.00 99 1017.2
20260906110827 57 241 0.0 1.0 0.00 0.00 0.00 99 1017.4
20260906110323 57 185 0.0 0.0 0.00 0.00 0.00 99 1017.2
20260906105822 57 218 0.0 0.0 0.00 0.00 0.00 99 1017.2
20260906105317 57 211 0.0 1.0 0.00 0.00 0.00 99 1016.9
20260906104813 57 232 0.0 2.0 0.00 0.00 0.00 99 1017.0
20260906104311 57 214 0.0 0.0 0.00 0.00 0.00 99 1016.8
20260906103809 57 222 0.0 1.0 0.00 0.00 0.00 99 1016.8
20260906103303 57 196 0.0 0.0 0.00 0.00 0.00 99 1016.8
20260906102759 57 203 0.0 1.0 0.00 0.00 0.00 99 1016.7
20260906102257 57 165 0.0 0.0 0.00 0.00 0.00 99 1016.6
20260906101753 57 209 0.0 0.0 0.00 0.00 0.00 99 1016.6
20260906101248 57 188 0.0 0.0 0.00 0.00 0.00 99 1016.4
20260906100744 57 242 0.0 0.0 0.00 0.00 0.00 99 1016.6
20260906100243 57 222 0.0 0.0 0.00 0.00 0.00 99 1016.5
20260906095739 57 217 0.0 0.0 0.00 0.00 0.00 99 1016.6
20260906095234 57 231 0.0 0.0 0.00 0.00 0.00 99 1016.4
20260906094733 57 211 0.0 0.0 0.00 0.00 0.00 99 1016.4
20260906094228 57 238 0.0 0.0 0.00 0.00 0.00 99 1016.5
20260906093725 57 219 0.0 0.0 0.00 0.00 0.00 99 1016.3
20260906093219 57 215 0.0 0.0 0.00 0.00 0.00 99 1016.4
20260906092715 57 262 0.0 1.0 0.00 0.00 0.00 99 1016.4
20260906092209 57 197 0.0 0.0 0.00 0.00 0.00 99 1016.3
20260906091705 57 247 0.0 0.0 0.00 0.00 0.00 99 1016.4
20260906091201 57 203 0.0 0.0 0.00 0.00 0.00 99 1016.3
20260906090657 57 230 0.0 0.0 0.00 0.00 0.00 99 1016.4
20260906090155 57 227 0.0 2.0 0.00 0.00 0.00 99 1016.2
20260906085655 57 228 0.0 0.0 0.00 0.00 0.00 99 1016.1
20260906085149 57 222 0.0 0.0 0.00 0.00 0.00 99 1016.2
20260906084644 57 232 0.0 1.0 0.00 0.00 0.00 99 1016.2
20260906084143 57 219 0.0 0.0 0.00 0.00 0.00 99 1016.3
20260906083638 57 243 0.0 0.0 0.00 0.00 0.00 99 1016.1
20260906083133 57 238 0.0 3.0 0.00 0.00 0.00 99 1016.2
20260906082629 57 221 0.0 0.0 0.00 0.00 0.00 99 1016.0
20260906082124 57 216 0.0 0.0 0.00 0.00 0.00 99 1016.0
20260906081620 57 219 0.0 0.0 0.00 0.00 0.00 99 1016.0
20260906081115 57 237 0.0 1.0 0.00 0.00 0.00 99 1015.8
20260906080612 57 211 0.0 0.0 0.00 0.00 0.00 99 1016.2
20260906080108 58 219 0.0 2.0 0.00 0.00 0.00 99 1016.0
20260906075607 58 208 0.0 1.0 0.00 0.00 0.00 99 1016.0
20260906075101 58 233 0.0 1.0 0.00 0.00 0.00 99 1016.1
20260906074556 58 240 0.0 2.0 0.00 0.00 0.00 99 1015.7
20260906074049 58 233 0.0 0.0 0.00 0.00 0.00 99 1016.1
20260906073544 58 240 1.0 2.0 0.00 0.00 0.00 99 1016.2
20260906073041 58 208 0.0 0.0 0.00 0.00 0.00 99 1016.0
20260906072535 58 225 0.0 0.0 0.00 0.00 0.00 99 1015.8
20260906072031 58 231 0.0 1.0 0.00 0.00 0.00 99 1016.1
20260906071527 58 226 0.0 0.0 0.00 0.00 0.00 99 1016.3
20260906071016 58 258 2.0 2.0 0.00 0.00 0.00 99 1016.1
20260906070512 58 225 0.0 0.0 0.00 0.00 0.00 99 1016.1
20260906070008 59 209 0.0 0.0 0.00 0.00 0.00 99 1016.0
20260906065502 59 225 0.0 0.0 0.00 0.00 0.00 99 1016.1
20260906064957 59 227 0.0 0.0 0.00 0.00 0.00 99 1016.1
20260906064453 59 220 0.0 0.0 0.00 0.00 0.00 99 1016.5
20260906063948 59 247 0.0 0.0 0.00 0.00 0.00 99 1016.2
20260906063443 59 226 0.0 0.0 0.00 0.00 0.00 99 1016.3
20260906062938 59 231 0.0 0.0 0.00 0.00 0.00 99 1016.1
20260906062433 59 224 0.0 0.0 0.00 0.00 0.00 99 1016.2
20260906061927 59 210 0.0 0.0 0.00 0.00 0.00 99 1016.3
20260906061424 59 213 0.0 0.0 0.00 0.00 0.00 99 1016.3
20260906060918 58 241 0.0 0.0 0.00 0.00 0.00 99 1016.3
20260906060416 58 223 0.0 0.0 0.00 0.00 0.00 99 1016.4
20260906055912 58 215 0.0 0.0 0.00 0.00 0.00 99 1016.4
20260906055407 58 229 0.0 0.0 0.00 0.00 0.00 99 1016.2
20260906054903 57 229 0.0 0.0 0.00 0.00 0.00 99 1016.1
20260906054357 57 218 0.0 0.0 0.00 0.00 0.00 99 1016.2
20260906053853 57 218 0.0 0.0 0.00 0.00 0.00 99 1016.4
20260906053349 57 219 0.0 0.0 0.00 0.00 0.00 99 1016.5
20260906052844 57 218 0.0 0.0 0.00 0.00 0.00 99 1016.5
20260906052341 57 219 0.0 0.0 0.00 0.00 0.00 99 1016.5
20260906051837 57 219 0.0 0.0 0.00 0.00 0.00 99 1016.5
20260906051337 57 219 0.0 0.0 0.00 0.00 0.00 99 1016.5
20260906050833 58 219 0.0 0.0 0.00 0.00 0.00 99 1016.5
20260906050327 58 216 0.0 0.0 0.00 0.00 0.00 99 1016.7
20260906045826 58 227 0.0 0.0 0.00 0.00 0.00 99 1016.6
20260906045321 58 222 0.0 0.0 0.00 0.00 0.00 99 1016.6
20260906044817 57 222 0.0 0.0 0.00 0.00 0.00 99 1016.5
20260906044316 58 218 0.0 0.0 0.00 0.00 0.00 99 1016.7
20260906043812 58 213 0.0 0.0 0.00 0.00 0.00 99 1016.6
20260906043308 58 218 0.0 0.0 0.00 0.00 0.00 99 1016.4
20260906042803 58 217 0.0 0.0 0.00 0.00 0.00 99 1016.6
20260906042306 59 217 0.0 0.0 0.00 0.00 0.00 99 1016.6
20260906041758 59 217 0.0 0.0 0.00 0.00 0.00 99 1016.7
20260906041253 59 217 0.0 0.0 0.00 0.00 0.00 99 1016.7
20260906040748 59 217 0.0 0.0 0.00 0.00 0.00 99 1016.4
20260906040243 59 217 0.0 0.0 0.00 0.00 0.00 99 1016.6
20260906035738 59 216 0.0 0.0 0.00 0.00 0.00 99 1016.4
20260906035229 59 215 0.0 0.0 0.00 0.00 0.00 99 1016.5
20260906034728 59 215 0.0 0.0 0.00 0.00 0.00 99 1016.5
20260906034223 59 217 0.0 0.0 0.00 0.00 0.00 99 1016.3
20260906033719 59 221 0.0 0.0 0.00 0.00 0.00 99 1016.5
20260906033218 59 221 0.0 0.0 0.00 0.00 0.00 99 1016.5
20260906032716 59 219 0.0 0.0 0.00 0.00 0.00 99 1016.4
20260906032215 60 224 0.0 0.0 0.00 0.00 0.00 99 1016.2
20260906031710 60 219 0.0 0.0 0.00 0.00 0.00 99 1016.2
20260906031206 60 219 0.0 0.0 0.00 0.00 0.00 99 1016.3
20260906030706 60 225 0.0 0.0 0.00 0.00 0.00 99 1016.3
20260906030200 60 216 0.0 0.0 0.00 0.00 0.00 99 1016.2
20260906025659 60 219 0.0 0.0 0.00 0.00 0.00 99 1016.2
20260906025154 60 220 0.0 0.0 0.00 0.00 0.00 99 1016.2
20260906024649 60 220 0.0 0.0 0.00 0.00 0.00 98 1016.4
20260906024147 60 220 0.0 0.0 0.00 0.00 0.00 98 1016.4
20260906023644 60 220 0.0 0.0 0.00 0.00 0.00 98 1016.5
20260906023143 60 220 0.0 0.0 0.00 0.00 0.00 98 1016.4
20260906022638 60 220 0.0 0.0 0.00 0.00 0.00 97 1016.5
20260906022135 60 220 0.0 0.0 0.00 0.00 0.00 97 1016.5
20260906021630 60 224 0.0 0.0 0.00 0.00 0.00 97 1016.4
20260906021128 60 215 0.0 0.0 0.00 0.00 0.00 97 1016.6
20260906020623 60 221 0.0 0.0 0.00 0.00 0.00 96 1016.5
20260906020118 60 221 0.0 0.0 0.00 0.00 0.00 96 1016.3
20260906015613 60 221 0.0 0.0 0.00 0.00 0.00 96 1016.5
20260906015111 61 215 0.0 0.0 0.00 0.00 0.00 96 1016.4
20260906014606 61 219 0.0 0.0 0.00 0.00 0.00 96 1016.2
20260906014103 61 218 0.0 0.0 0.00 0.00 0.00 96 1016.2
20260906013557 61 215 0.0 0.0 0.00 0.00 0.00 95 1016.2
20260906013053 61 218 0.0 0.0 0.00 0.00 0.00 95 1016.3
20260906012548 61 215 0.0 0.0 0.00 0.00 0.00 95 1016.2
20260906012047 61 236 0.0 1.0 0.00 0.00 0.00 94 1016.3
20260906011544 61 231 0.0 0.0 0.00 0.00 0.00 94 1016.5
20260906011043 61 194 1.0 1.0 0.00 0.00 0.00 94 1016.4
20260906010539 61 214 0.0 1.0 0.00 0.00 0.00 94 1016.5
20260906010035 61 172 1.0 3.0 0.00 0.00 0.00 95 1016.4
20260906005534 61 214 0.0 0.0 0.00 0.00 0.00 96 1016.5
20260906005032 61 223 0.0 0.0 0.00 0.00 0.00 96 1016.2
20260906004527 61 223 0.0 0.0 0.00 0.00 0.00 95 1016.2
20260906004021 61 222 0.0 0.0 0.00 0.00 0.00 94 1016.2
20260906003516 61 223 0.0 0.0 0.00 0.00 0.00 94 1015.7
20260906003012 62 223 0.0 0.0 0.00 0.00 0.00 93 1016.0
20260906002507 62 223 0.0 0.0 0.00 0.00 0.00 93 1015.7
20260906002002 62 223 0.0 0.0 0.00 0.00 0.00 92 1015.8
20260906001458 62 223 0.0 0.0 0.00 0.00 0.00 92 1016.0
20260906000952 62 231 0.0 0.0 0.00 0.00 0.00 91 1016.0
20260906000448 62 210 0.0 1.0 0.00 0.00 0.00 91 1016.0
20260905235948 63 227 0.0 0.0 0.00 0.00 0.00 91 1016.1
20260905235442 63 234 0.0 0.0 0.00 0.00 0.00 91 1016.0
20260905234937 63 245 1.0 2.0 0.00 0.00 0.00 90 1015.8
20260905234432 63 228 0.0 0.0 0.00 0.00 0.00 89 1015.8
20260905233927 63 232 0.0 1.0 0.00 0.00 0.00 89 1015.8
20260905233422 63 202 0.0 0.0 0.00 0.00 0.00 89 1015.8
20260905232921 63 222 0.0 0.0 0.00 0.00 0.00 89 1015.8
20260905232417 63 226 0.0 0.0 0.00 0.00 0.00 89 1015.8
20260905231907 64 233 0.0 0.0 0.00 0.00 0.00 88 1015.7
20260905231402 64 222 0.0 0.0 0.00 0.00 0.00 86 1015.6
20260905230859 64 229 0.0 0.0 0.00 0.00 0.00 86 1015.5
20260905230356 64 237 0.0 0.0 0.00 0.00 0.00 85 1015.7
20260905225850 64 216 0.0 3.0 0.00 0.00 0.00 85 1015.7
20260905225345 64 198 1.0 1.0 0.00 0.00 0.00 85 1015.8
20260905224840 64 227 0.0 2.0 0.00 0.00 0.00 85 1015.6
20260905224335 64 235 0.0 1.0 0.00 0.00 0.00 84 1015.8
20260905223830 64 177 1.0 2.0 0.00 0.00 0.00 84 1015.8
20260905223327 65 210 1.0 1.0 0.00 0.00 0.00 84 1015.8
20260905222817 65 197 2.0 2.0 0.00 0.00 0.00 83 1015.7
20260905222316 65 230 0.0 0.0 0.00 0.00 0.00 83 1015.6
20260905221812 65 229 0.0 1.0 0.00 0.00 0.00 82 1015.6
20260905221309 65 220 0.0 8.0 0.00 0.00 0.00 81 1015.6
20260905220804 66 205 1.0 1.0 0.00 0.00 0.00 81 1015.4
20260905220300 66 210 0.0 1.0 0.00 0.00 0.00 80 1015.3
20260905215759 66 199 0.0 1.0 0.00 0.00 0.00 79 1015.3
20260905215255 67 223 1.0 2.0 0.00 0.00 0.00 82 1015.2
20260905214751 67 223 1.0 2.0 0.00 0.00 0.00 82 1015.3
20260905214246 67 239 0.0 1.0 0.00 0.00 0.00 78 1015.2
20260905213741 67 223 1.0 3.0 0.00 0.00 0.00 77 1015.4
20260905213238 67 199 1.0 4.0 0.00 0.00 0.00 78 1015.2
20260905212733 67 239 0.0 2.0 0.00 0.00 0.00 78 1015.0
20260905212232 67 200 0.0 4.0 0.00 0.00 0.00 79 1015.2
20260905211731 67 143 1.0 2.0 0.00 0.00 0.00 79 1015.1
20260905211227 66 249 1.0 2.0 0.00 0.00 0.00 80 1015.2
20260905210724 66 193 0.0 1.0 0.00 0.00 0.00 82 1015.1
20260905210223 66 270 2.0 3.0 0.00 0.00 0.00 81 1014.9
20260905205722 66 214 0.0 3.0 0.00 0.00 0.00 82 1015.1
20260905205217 66 232 0.0 0.0 0.00 0.00 0.00 81 1014.9
20260905204716 66 193 1.0 2.0 0.00 0.00 0.00 79 1015.0
20260905204212 67 229 0.0 0.0 0.00 0.00 0.00 78 1014.9
20260905203706 68 231 1.0 2.0 0.00 0.00 0.00 77 1014.8
20260905203202 68 232 1.0 1.0 0.00 0.00 0.00 75 1015.0
20260905202657 69 228 0.0 2.0 0.00 0.00 0.00 75 1014.9
20260905202152 68 248 1.0 2.0 0.00 0.00 0.00 75 1014.9
20260905201648 68 228 1.0 3.0 0.00 0.00 0.00 77 1014.9
20260905201147 68 269 4.0 4.0 0.00 0.00 0.00 74 1015.1
20260905200643 67 221 0.0 1.0 0.00 0.00 0.00 79 1014.8
20260905200138 67 238 0.0 2.0 0.00 0.00 0.00 77 1015.1
20260905195636 67 196 1.0 3.0 0.00 0.00 0.00 77 1015.0
20260905195131 67 251 1.0 2.0 0.00 0.00 0.00 77 1015.1
20260905194626 67 267 1.0 3.0 0.00 0.00 0.00 79 1015.1
20260905194125 67 241 1.0 1.0 0.00 0.00 0.00 81 1014.9
20260905193621 67 231 0.0 1.0 0.00 0.00 0.00 79 1015.0
20260905193115 68 205 0.0 0.0 0.00 0.00 0.00 76 1015.1
20260905192611 68 227 0.0 2.0 0.00 0.00 0.00 76 1015.0
20260905192107 69 213 1.0 3.0 0.00 0.00 0.00 74 1014.9
20260905191606 68 231 0.0 1.0 0.00 0.00 0.00 78 1015.1
20260905191105 68 290 3.0 3.0 0.00 0.00 0.00 75 1014.9
20260905190603 68 187 2.0 3.0 0.00 0.00 0.00 76 1015.0
20260905185601 68 238 0.0 1.0 0.00 0.00 0.00 76 1014.9
20260905185056 68 211 1.0 3.0 0.00 0.00 0.00 76 1014.9
20260905184551 68 245 0.0 3.0 0.00 0.00 0.00 73 1015.1
20260905184049 68 207 1.0 2.0 0.00 0.00 0.00 75 1015.0
20260905183543 68 197 1.0 3.0 0.00 0.00 0.00 79 1015.1
20260905183038 67 207 0.0 3.0 0.00 0.00 0.00 80 1015.0
20260905182532 67 217 0.0 0.0 0.00 0.00 0.00 80 1015.0
20260905182026 66 273 0.0 0.0 0.00 0.00 0.00 80 1014.9
20260905181521 66 201 2.0 3.0 0.00 0.00 0.00 81 1015.0
20260905181020 66 230 1.0 2.0 0.00 0.00 0.00 80 1015.0
20260905180515 67 242 0.0 1.0 0.00 0.00 0.00 80 1015.3
20260905180011 67 244 1.0 3.0 0.00 0.00 0.00 78 1015.2
20260905175510 67 273 2.0 2.0 0.00 0.00 0.00 77 1015.0
20260905175006 68 242 1.0 2.0 0.00 0.00 0.00 78 1015.0
20260905174501 67 262 1.0 2.0 0.00 0.00 0.00 79 1015.2
20260905173957 67 190 0.0 0.0 0.00 0.00 0.00 78 1015.1
20260905173453 67 176 0.0 1.0 0.00 0.00 0.00 81 1015.0
20260905172948 67 277 1.0 2.0 0.00 0.00 0.00 76 1015.1
20260905172446 69 237 0.0 2.0 0.00 0.00 0.00 74 1015.1
20260905171942 70 94 1.0 2.0 0.00 0.00 0.00 68 1014.9
20260905171438 69 216 1.0 4.0 0.00 0.00 0.00 69 1014.9
20260905170934 69 228 0.0 4.0 0.00 0.00 0.00 75 1015.0
20260905170430 70 249 1.0 2.0 0.00 0.00 0.00 71 1015.0
20260905165930 69 231 0.0 1.0 0.00 0.00 0.00 73 1014.8
20260905165425 69 194 0.0 0.0 0.00 0.00 0.00 73 1014.8
20260905164920 68 219 0.0 1.0 0.00 0.00 0.00 74 1014.9
20260905164414 66 52 0.0 3.0 0.00 0.00 0.00 80 1015.0
20260905163909 65 214 0.0 2.0 0.00 0.00 0.00 82 1015.0
20260905163406 66 159 1.0 1.0 0.00 0.00 0.00 79 1015.3
20260905162902 66 239 1.0 3.0 0.00 0.00 0.00 78 1015.0
20260905162402 68 309 1.0 4.0 0.00 0.00 0.00 73 1015.1
20260905161856 68 341 2.0 3.0 0.00 0.00 0.00 75 1015.0
20260905161356 68 69 2.0 6.0 0.00 0.00 0.00 74 1015.1
20260905160854 67 265 3.0 6.0 0.00 0.00 0.00 76 1015.2
20260905160348 66 203 1.0 2.0 0.00 0.00 0.00 81 1015.2
20260905155843 68 155 2.0 6.0 0.00 0.00 0.00 76 1015.2
20260905155342 68 259 1.0 3.0 0.00 0.00 0.00 75 1015.2
20260905154837 68 233 0.0 2.0 0.00 0.00 0.00 77 1015.2
20260905154332 66 235 0.0 3.0 0.00 0.00 0.00 79 1015.0
20260905153828 65 107 2.0 3.0 0.00 0.00 0.00 78 1015.3
20260905153324 66 354 2.0 4.0 0.00 0.00 0.00 78 1015.4
20260905152823 67 184 2.0 6.0 0.00 0.00 0.00 78 1015.2
20260905152322 67 216 3.0 4.0 0.00 0.00 0.00 77 1015.3
20260905151817 65 183 1.0 6.0 0.00 0.00 0.00 79 1015.2
20260905151313 65 203 0.0 4.0 0.00 0.00 0.00 82 1015.3
20260905150813 66 207 1.0 7.0 0.00 0.00 0.00 80 1015.2
20260905150313 65 226 1.0 3.0 0.00 0.00 0.00 81 1015.1
20260905145810 64 152 1.0 6.0 0.00 0.00 0.00 84 1015.2
20260905145306 65 62 4.0 7.0 0.00 0.00 0.00 82 1015.2
20260905144803 65 202 2.0 3.0 0.00 0.00 0.00 84 1015.1
20260905144259 65 308 3.0 3.0 0.00 0.00 0.00 82 1015.1
20260905143758 65 186 1.0 3.0 0.00 0.00 0.00 85 1015.0
20260905143252 66 161 1.0 3.0 0.00 0.00 0.00 81 1015.2
20260905142751 65 211 1.0 8.0 0.00 0.00 0.00 85 1015.0
20260905142245 64 193 3.0 3.0 0.00 0.00 0.00 85 1015.1
20260905141741 63 139 0.0 2.0 0.00 0.00 0.00 88 1015.1
20260905141237 62 254 2.0 3.0 0.00 0.00 0.00 88 1015.2
20260905140732 63 1 3.0 4.0 0.00 0.00 0.00 87 1015.1
20260905140227 63 261 1.0 1.0 0.00 0.00 0.00 86 1015.1
20260905135721 64 186 1.0 4.0 0.00 0.00 0.00 86 1015.0
20260905135217 64 73 0.0 4.0 0.00 0.00 0.00 88 1015.0
20260905134716 63 206 0.0 1.0 0.00 0.00 0.00 90 1015.1
20260905134215 62 167 0.0 2.0 0.00 0.00 0.00 90 1015.2
20260905133710 62 222 1.0 6.0 0.00 0.00 0.00 90 1015.0
20260905133205 62 188 2.0 2.0 0.00 0.00 0.00 89 1015.1
20260905132704 62 250 2.0 3.0 0.00 0.00 0.00 92 1014.9
20260905132200 61 279 4.0 6.0 0.00 0.00 0.00 94 1014.7
20260905131649 61 211 0.0 7.0 0.00 0.00 0.00 94 1014.8
20260905131144 60 200 0.0 2.0 0.00 0.00 0.00 96 1015.0
20260905130639 60 323 2.0 2.0 0.00 0.00 0.00 97 1015.0
20260905130138 60 263 0.0 2.0 0.00 0.00 0.00 98 1015.2